CZ-6A DEB, 60715

Orbit data source: Space-Track

CZ-6A DEB, 60715 is space debris in LEO originally from a launch on Tue, 06 Aug 2024 UTC launched from the Taiyaun Space Center, China (TSC). Debris objects in space refer to the collection of defunct objects orbiting the Earth. Examples of debris include non-operational satellites, rocket bodies, and fragments generated from explosions, collisions, or faulty payload assembly.

Loading next visibility...
Identifier
60715, 2024-140DU
Orbit
LEO
Country
Flag of CNCN / PRC
Related business
Manufacturer
SAST
Mission
Spacecraft
Bus & Motor
Unknown
Mass
Unknown
Launch date (UTC)
2024-08-06 (2 years ago)
Launch vehicle
Unknown
Launch site
Taiyaun Space Center, China (TSC)
Object type
Payload
Rocket body
Debris
Shape & HBR
Unknown shape, 0.2 m
Radar Cross Section
Medium (>0.1 m² and <1 m²)

Expand to show TLE details & history
Last TLE update: 12 hours ago

TLE from 12 hours ago
0 CZ-6A DEB
1 60715U 24140DU  26171.34458924  .00000935  00000-0  46535-3 0  9999
2 60715  89.0490 278.8888 0072635 195.2290 164.6712 14.14903844 95718
Epoch: 2026-06-20T08:16Z
TLE epoch observation values (Epoch: 2026-06-20T08:16:12.510Z)
Latitude
-0.00001°
Longitude
-113.72388°
Altitude
896.305 km
Speed
7.378 km/s
True Right ascension
18h 35m 33s
True Declination
0° 00' 00"
Sunlit
Object was in full shadow at epoch
Visualization orbit readout
Latitude
Unknown
Longitude
Unknown
Altitude
Unknown
Speed
Unknown
Apparent Right ascension
Unknown
Apparent Declination
Unknown
Sunlit
N/A
Visualization observer readout
Local Sidereal Time
07:13:17
Azimuth
Unknown
Elevation
Unknown
Doppler factor
Unknown
Orbital elements
Apogee altitude
892.023 km
Perigee altitude
787.171 km
Semi-major axis
7,217.734 km
Eccentricity
0.00726
Inclination
89.049°
RAAN
278.8888°
Arg. of periapsis
195.229°
True anomaly
164.88932°
Mean anomaly
164.6712°
Eccentric anomaly
164.78045°
Mean motion
3.5395 °/min
Orbital period
101.71 mins
BSTAR
0.00046535
Loading maneuver chart data...
Computing Atmospheric mass density...
Loading historical data...
Loading historical data...
Loading historical data...
Loading historical data...
Loading historical data...
Loading historical data...
Loading historical data...

Documentation

Showing up to 5 results
|